Le nostre stazioni meteo in Italia

Pubblicità
Il mio iltempo24.it
Bologna, Italia (16132): Temperatura & dewpoint: 13.08.2018 10:00:00 - 19.08.2018 10:00:00 (CEST)Bologna, Italia (16132): reduced air pressure: 13.08.2018 10:00:00 - 19.08.2018 10:00:00 (CEST)Bologna, Italia (16132): precipitazioni: 13.08.2018 10:00:00 - 19.08.2018 10:00:00 (CEST)
Data & Tempo tt [°C] td [°C] ppp [hPa] rr [mm]
19.08.2018 10:00:00 - - - -
19.08.2018 09:00:00 23,1 18,8 1018,5 -
19.08.2018 08:00:00 21,3 17,4 1018,4 0,0
19.08.2018 07:00:00 19,9 16,7 1018,1 -
19.08.2018 06:00:00 20,1 16,9 1017,8 -
19.08.2018 05:00:00 20,6 17,0 1018,0 -
19.08.2018 04:00:00 21,2 16,7 1017,9 -
19.08.2018 03:00:00 21,6 17,5 1017,7 -
19.08.2018 02:00:00 22,0 17,7 1017,7 0,0
19.08.2018 01:00:00 22,5 18,2 1017,6 -
19.08.2018 00:00:00 23,1 18,1 1017,6 -
18.08.2018 23:00:00 24,4 18,3 1017,1 -
18.08.2018 22:00:00 24,7 19,2 1016,9 -
18.08.2018 21:00:00 25,6 19,2 1016,5 -
18.08.2018 20:00:00 26,7 18,5 1016,0 0,0
18.08.2018 19:00:00 27,9 18,8 1015,6 -
18.08.2018 18:00:00 32,3 19,5 1015,3 -
18.08.2018 17:00:00 30,9 18,6 1015,6 -
18.08.2018 16:00:00 30,9 18,9 1015,9 -
18.08.2018 15:00:00 31,4 20,3 1016,3 -
18.08.2018 14:00:00 31,4 20,3 1017,0 0,0
18.08.2018 13:00:00 30,3 19,0 1017,2 -
18.08.2018 12:00:00 28,8 18,8 1017,4 -
18.08.2018 11:00:00 26,9 18,4 1017,3 -
18.08.2018 10:00:00 24,8 17,0 1017,4 -
18.08.2018 09:00:00 22,6 15,6 1017,3 -
18.08.2018 08:00:00 20,9 15,1 1016,8 0,0
18.08.2018 07:00:00 19,8 14,5 1016,3 -
18.08.2018 06:00:00 19,9 14,0 1015,9 -
18.08.2018 05:00:00 21,3 14,4 1015,5 -
18.08.2018 04:00:00 21,3 14,4 1015,7 -
18.08.2018 03:00:00 21,9 14,7 1015,6 -
18.08.2018 02:00:00 22,1 14,6 1015,6 0,0
18.08.2018 01:00:00 22,6 14,9 1015,7 -
18.08.2018 00:00:00 24,1 15,2 1015,0 -
17.08.2018 23:00:00 25,2 16,0 1014,7 -
17.08.2018 22:00:00 26,7 16,3 1014,5 -
17.08.2018 21:00:00 28,4 16,0 1013,7 -
17.08.2018 20:00:00 29,6 16,0 1013,3 0,0
17.08.2018 19:00:00 31,0 16,6 1012,9 -
17.08.2018 18:00:00 31,5 17,0 1012,5 -
17.08.2018 17:00:00 31,8 17,3 1013,0 -
17.08.2018 16:00:00 31,3 17,6 1013,5 -
17.08.2018 15:00:00 31,1 16,7 1014,2 -
17.08.2018 14:00:00 30,5 17,9 1014,4 0,0
17.08.2018 13:00:00 29,7 16,8 1014,8 -
17.08.2018 12:00:00 28,5 16,4 1015,1 -
17.08.2018 11:00:00 26,9 16,4 1015,4 -
17.08.2018 10:00:00 24,1 15,8 1015,5 -
17.08.2018 09:00:00 21,7 15,0 1015,4 -
17.08.2018 08:00:00 20,0 14,7 1015,2 0,0
17.08.2018 07:00:00 18,5 14,7 1015,3 -
17.08.2018 06:00:00 18,9 15,1 1015,0 -
17.08.2018 05:00:00 19,1 15,3 1014,8 -
17.08.2018 04:00:00 19,5 15,5 1015,1 -
17.08.2018 03:00:00 20,0 15,8 1015,0 -
17.08.2018 02:00:00 21,1 15,8 1015,0 0,0
17.08.2018 01:00:00 20,9 16,6 1015,2 -
17.08.2018 00:00:00 21,5 16,8 1015,0 -
16.08.2018 23:00:00 22,7 15,7 1014,9 -
16.08.2018 22:00:00 25,5 15,1 1014,7 -
16.08.2018 21:00:00 26,7 15,0 1014,4 -
16.08.2018 20:00:00 28,2 15,1 1013,9 0,0
16.08.2018 19:00:00 29,3 15,0 1013,8 -
16.08.2018 18:00:00 30,3 15,6 1014,4 -
16.08.2018 17:00:00 30,4 15,6 1014,5 -
16.08.2018 16:00:00 30,4 16,4 1014,9 -
16.08.2018 15:00:00 30,7 17,7 1015,4 -
16.08.2018 14:00:00 29,5 17,9 1015,7 0,0
16.08.2018 13:00:00 28,3 18,3 1016,2 -
16.08.2018 12:00:00 27,4 18,1 1016,8 -
16.08.2018 11:00:00 25,8 17,6 1017,4 -
16.08.2018 10:00:00 23,9 16,8 1017,3 -
16.08.2018 09:00:00 21,4 16,9 1017,3 -
16.08.2018 08:00:00 19,3 15,5 1017,3 0,0
16.08.2018 07:00:00 18,2 15,0 1017,3 -
16.08.2018 06:00:00 18,1 14,9 1017,0 -
16.08.2018 05:00:00 18,6 15,4 1016,9 -
16.08.2018 04:00:00 18,7 15,5 1017,0 -
16.08.2018 03:00:00 19,1 15,9 1017,0 -
16.08.2018 02:00:00 19,6 16,4 1017,1 0,0
16.08.2018 01:00:00 20,3 16,7 1017,0 -
16.08.2018 00:00:00 20,7 16,9 1017,1 -
15.08.2018 23:00:00 22,0 17,3 1016,5 -
15.08.2018 22:00:00 24,2 16,1 1016,3 -
15.08.2018 21:00:00 26,1 16,3 1015,7 -
15.08.2018 20:00:00 27,8 16,1 1015,1 0,0
15.08.2018 19:00:00 28,4 17,2 1014,7 -
15.08.2018 18:00:00 29,0 17,5 1015,1 -
15.08.2018 17:00:00 28,9 18,3 1015,4 -
15.08.2018 16:00:00 28,7 18,7 1015,7 -
15.08.2018 15:00:00 28,2 18,5 1016,1 -
15.08.2018 14:00:00 27,4 18,6 1016,1 0,0
15.08.2018 13:00:00 26,2 19,5 1016,5 -
15.08.2018 12:00:00 23,4 19,3 1016,9 -
15.08.2018 11:00:00 22,2 18,9 1016,9 -
15.08.2018 10:00:00 21,5 18,2 1016,6 -
15.08.2018 09:00:00 20,8 17,7 1016,5 -
15.08.2018 08:00:00 19,9 17,2 1016,1 0,0
15.08.2018 07:00:00 19,6 16,9 1015,5 -
15.08.2018 06:00:00 19,4 16,7 1015,2 -
15.08.2018 05:00:00 19,4 16,9 1015,3 -
15.08.2018 04:00:00 19,5 16,8 1015,3 -
15.08.2018 03:00:00 19,4 16,7 1015,2 -
15.08.2018 02:00:00 19,3 16,8 1015,2 0,0
15.08.2018 01:00:00 19,4 16,7 1015,1 -
15.08.2018 00:00:00 20,9 17,8 1015,2 -
14.08.2018 23:00:00 20,4 17,5 1014,4 -
14.08.2018 22:00:00 20,6 17,5 1013,9 -
14.08.2018 21:00:00 21,1 17,8 1013,0 -
14.08.2018 20:00:00 21,3 18,2 1012,3 0,0
14.08.2018 19:00:00 21,0 17,9 1012,7 -
14.08.2018 18:00:00 20,3 17,2 1013,0 -
14.08.2018 17:00:00 20,5 17,6 1012,4 -
14.08.2018 16:00:00 26,9 18,4 1011,3 -
14.08.2018 15:00:00 28,0 20,2 1011,1 -
14.08.2018 14:00:00 27,9 21,4 1011,7 0,0
14.08.2018 13:00:00 27,3 19,6 1012,1 -
14.08.2018 12:00:00 26,7 19,3 1012,3 -
14.08.2018 11:00:00 25,2 18,8 1011,9 -
14.08.2018 10:00:00 23,6 19,9 1012,1 -
14.08.2018 09:00:00 22,0 18,7 1011,7 -
14.08.2018 08:00:00 20,9 17,8 1011,6 0,0
14.08.2018 07:00:00 20,6 17,3 1011,3 -
14.08.2018 06:00:00 20,8 17,2 1010,6 -
14.08.2018 05:00:00 21,5 17,2 1010,8 -
14.08.2018 04:00:00 21,7 17,4 1010,3 -
14.08.2018 03:00:00 21,9 17,8 1010,6 -
14.08.2018 02:00:00 22,5 18,2 1011,1 0,0
14.08.2018 01:00:00 22,6 18,1 1011,5 -
14.08.2018 00:00:00 22,8 18,5 1011,6 -
13.08.2018 23:00:00 22,8 18,7 1011,7 -
13.08.2018 22:00:00 22,7 18,2 1012,0 -
13.08.2018 21:00:00 25,6 17,2 1010,9 -
13.08.2018 20:00:00 28,8 17,3 1009,8 0,0
13.08.2018 19:00:00 29,2 18,0 1009,7 -
13.08.2018 18:00:00 27,1 18,3 1010,1 -
13.08.2018 17:00:00 31,0 19,0 1009,7 -
13.08.2018 16:00:00 31,4 18,7 1010,3 -
13.08.2018 15:00:00 32,5 20,1 1011,2 -
13.08.2018 14:00:00 30,9 19,2 1011,9 0,0
13.08.2018 13:00:00 30,0 20,8 1012,9 -
13.08.2018 12:00:00 28,7 20,4 1013,2 -
13.08.2018 11:00:00 27,6 18,8 1013,4 -
13.08.2018 10:00:00 25,5 16,8 1014,1 -

tt = Temperatura
td = dewpoint
ppp = reduced air pressure
rr = precipitazioni

Stazioni seguenti

WeatherPro
AMSI
MeteoEarth